This is the latest recevied weather packets stored in our database for station/object KC1OEK-13. If no packets are shown the sender has not sent any weather packets the latest 10 day(s).
| Time | Temp. | Humidity | Pressure | Rain* | Wind** | Luminosity | Snow |
|---|---|---|---|---|---|---|---|
| 1778160683 | 11.67° C | 50% | 1012.1 hPa | 0 mm | - | 499 W/m² | - |
| 1778160380 | 10.56° C | 53% | 1012.2 hPa | 0 mm | - | 487 W/m² | - |
| 1778160076 | 11.11° C | 52% | 1012.4 hPa | 0 mm | - | 473 W/m² | - |
| 1778159773 | 11.11° C | 58% | 1012 hPa | 0 mm | - | 458 W/m² | - |
| 1778159471 | 11.67° C | 57% | 1012.1 hPa | 0 mm | - | 445 W/m² | - |
| 1778159168 | 10.56° C | 59% | 1012.2 hPa | 0 mm | - | 430 W/m² | - |
| 1778158866 | 11.11° C | 63% | 1011.9 hPa | 0 mm | - | 389 W/m² | - |
| 1778158564 | 10° C | 61% | 1012.1 hPa | 0 mm | - | 401 W/m² | - |
| 1778158261 | 10° C | 64% | 1012 hPa | 0 mm | - | 388 W/m² | - |
| 1778157957 | 10° C | 64% | 1011.9 hPa | 0 mm | - | 369 W/m² | - |
| 1778157655 | 10° C | 63% | 1012.1 hPa | 0 mm | - | 355 W/m² | - |
| 1778157353 | 9.44° C | 67% | 1012.2 hPa | 0 mm | - | 338 W/m² | - |
| 1778157050 | 9.44° C | 67% | 1012 hPa | 0 mm | - | 325 W/m² | - |
| 1778156745 | 9.44° C | 68% | 1012 hPa | 0 mm | - | 309 W/m² | - |
| 1778156441 | 9.44° C | 71% | 1012.2 hPa | 0 mm | - | 294 W/m² | - |
| 1778156137 | 9.44° C | 71% | 1012.3 hPa | 0 mm | - | 138 W/m² | - |
| 1778155833 | 9.44° C | 74% | 1012 hPa | 0 mm | - | 268 W/m² | - |
| 1778155529 | 8.89° C | 74% | 1012 hPa | 0 mm | - | 256 W/m² | - |
| 1778155227 | 8.89° C | 75% | 1011.9 hPa | 0 mm | - | 234 W/m² | - |
| 1778154923 | 8.33° C | 76% | 1011.6 hPa | 0 mm | - | 178 W/m² | - |
| 1778154618 | 8.33° C | 79% | 1011.9 hPa | 0 mm | - | 70 W/m² | - |
| 1778154315 | 8.33° C | 80% | 1011.7 hPa | 0 mm | - | 50 W/m² | - |
| 1778154012 | 8.33° C | 81% | 1011.8 hPa | 0 mm | - | 52 W/m² | - |
| 1778153709 | 7.78° C | 84% | 1011.9 hPa | 0 mm | - | 56 W/m² | - |
| 1778153406 | 7.78° C | 89% | 1011.6 hPa | 0 mm | - | 55 W/m² | - |
* Rain latest hour (hover to see other rain measurements)
** Current wind speed in m/s (hover to see current wind gust speed)